Copper Mountain, CO

3:38 PM MST on November 19, 2017 (GMT -0700)
Copper Mountain

Weather History for KCCU - July, 2013

Change the Weather History Date:

Monday, July 1, 2013

  Actual Average Record
Temperature  
Mean Temperature 56 °F -  
Max Temperature 64 °F - 73 °F (2012)
Min Temperature 48 °F - 35 °F (2004)
Degree Days  
Heating Degree Days 9    
Month to date heating degree days  
Cooling Degree Days 0    
Month to date cooling degree days  
Growing Degree Days 6 (Base 50)    
Moisture  
Dew Point 32 °F    
Average Humidity 43    
Maximum Humidity 63    
Minimum Humidity 22    
Precipitation  
Precipitation 0.06 in - 0.31 in (2016)
Sea Level Pressure  
Sea Level Pressure 30.70 in    
Wind  
Wind Speed 11 mph (West)    
Max Wind Speed 36 mph    
Max Gust Speed 47 mph    
Visibility 10 miles    
Events Rain , Thunderstorm    
T = Trace of Precipitation, MM = Missing Value Source: NWS Daily Summary

Daily Weather History Graph

Daily Weather History Graph

Search for Another Location

Airport or City:

Trip Planner

Search our weather history database for the weather conditions in past years. The results will help you decide how hot, cold, wet, or windy it might be!

Date:

Astronomy

Jul. 01, 2013 Rise Set
Actual Time 5:41 AM MDT 8:35 PM MDT
Civil Twilight 5:09 AM MDT 9:07 PM MDT
Nautical Twilight 4:28 AM MDT 9:48 PM MDT
Astronomical Twilight 3:41 AM MDT 10:35 PM MDT
Moon 1:11 AM MDT (7/1) 2:54 PM MDT (7/1)
Length of Visible Light 15h 58m
Length of Day
14h 54m
Waning Crescent, 35% of the Moon is Illuminated
Jul 1
Waning Crescent
Jul 8
New
Jul 15
First Quarter
Jul 22
Full
Jul 29
Last Quarter

Hourly Weather History & Observations

Time (MDT) Temp. Dew Point Humidity Pressure Visibility Wind Dir Wind Speed Gust Speed Precip Events Conditions
12:12 AM 51.8 °F 32.0 °F 47% 30.70 in 10.0 mi WNW 5.8 mph - N/A   Clear
12:32 AM 51.8 °F 32.0 °F 47% 30.69 in 10.0 mi WNW 5.8 mph - N/A   Clear
12:52 AM 51.8 °F 32.0 °F 47% 30.69 in 10.0 mi WNW 5.8 mph - N/A   Clear
1:12 AM 51.8 °F 32.0 °F 47% 30.69 in 10.0 mi West 5.8 mph - N/A   Clear
1:32 AM 51.8 °F 32.0 °F 47% 30.69 in 10.0 mi West 11.5 mph - N/A   Clear
1:52 AM 51.8 °F 30.2 °F 44% 30.69 in 10.0 mi West 9.2 mph - N/A   Clear
2:12 AM 51.8 °F 32.0 °F 47% 30.69 in 10.0 mi West 10.4 mph - N/A   Clear
2:32 AM 51.8 °F 32.0 °F 47% 30.69 in 10.0 mi West 13.8 mph - N/A   Clear
2:52 AM 51.8 °F 32.0 °F 47% 30.69 in 10.0 mi West 12.7 mph - N/A   Clear
3:12 AM 50.0 °F 30.2 °F 47% 30.69 in 10.0 mi West 11.5 mph - N/A   Clear
3:32 AM 51.8 °F 32.0 °F 47% 30.69 in 10.0 mi West 11.5 mph - N/A   Clear
3:52 AM 51.8 °F 32.0 °F 47% 30.69 in 10.0 mi West 8.1 mph - N/A   Clear
4:12 AM 50.0 °F 30.2 °F 47% 30.69 in 10.0 mi West 6.9 mph - N/A   Clear
4:32 AM 50.0 °F 30.2 °F 47% 30.69 in 10.0 mi West 5.8 mph - N/A   Clear
4:52 AM 50.0 °F 30.2 °F 47% 30.69 in 10.0 mi West 5.8 mph - N/A   Clear
5:12 AM 50.0 °F 28.4 °F 43% 30.69 in 10.0 mi West 8.1 mph - N/A   Clear
5:32 AM 48.2 °F 30.2 °F 50% 30.69 in 10.0 mi West 9.2 mph - N/A   Clear
5:52 AM 48.2 °F 30.2 °F 50% 30.69 in 10.0 mi West 8.1 mph - N/A   Clear
6:12 AM 50.0 °F 30.2 °F 47% 30.69 in 10.0 mi West 8.1 mph - N/A   Clear
6:21 AM 50.0 °F 30.2 °F 47% 30.69 in 10.0 mi West 10.4 mph - N/A   Clear
8:12 AM 53.6 °F 32.0 °F 44% 30.71 in 10.0 mi WNW 10.4 mph 17.3 mph N/A   Clear
8:32 AM 53.6 °F 32.0 °F 44% 30.72 in 10.0 mi West 9.2 mph 16.1 mph N/A   Clear
8:52 AM 53.6 °F 32.0 °F 44% 30.72 in 10.0 mi WNW 11.5 mph 18.4 mph N/A   Clear
9:12 AM 53.6 °F 30.2 °F 41% 30.72 in 10.0 mi WNW 11.5 mph 20.7 mph N/A   Clear
9:32 AM 53.6 °F 30.2 °F 41% 30.72 in 10.0 mi WNW 12.7 mph 21.9 mph N/A   Clear
9:52 AM 55.4 °F 28.4 °F 36% 30.72 in 10.0 mi WNW 11.5 mph 23.0 mph N/A   Clear
10:12 AM 59.0 °F 28.4 °F 31% 30.72 in 10.0 mi WNW 9.2 mph 19.6 mph N/A   Clear
10:32 AM 59.0 °F 28.4 °F 31% 30.72 in 10.0 mi WNW 8.1 mph 17.3 mph N/A   Clear
10:52 AM 59.0 °F 30.2 °F 34% 30.71 in 10.0 mi WNW 12.7 mph 23.0 mph N/A   Clear
11:12 AM 59.0 °F 30.2 °F 34% 30.72 in 10.0 mi WNW 15.0 mph 21.9 mph N/A   Clear
11:32 AM 60.8 °F 28.4 °F 29% 30.72 in 10.0 mi WNW 6.9 mph 17.3 mph N/A   Clear
11:52 AM 60.8 °F 26.6 °F 27% 30.71 in 10.0 mi WNW 10.4 mph 21.9 mph N/A   Clear
12:12 PM 60.8 °F 26.6 °F 27% 30.71 in 10.0 mi WNW 16.1 mph 21.9 mph N/A Thunderstorm Thunderstorm
12:32 PM 64.4 °F 28.4 °F 26% 30.71 in 10.0 mi WNW 6.9 mph 23.0 mph N/A   Scattered Clouds
12:52 PM 60.8 °F 24.8 °F 25% 30.70 in 10.0 mi WNW 18.4 mph 31.1 mph N/A Thunderstorm Scattered Clouds
1:12 PM 60.8 °F 21.2 °F 22% 30.71 in 10.0 mi WNW 18.4 mph 36.8 mph N/A   Scattered Clouds
1:32 PM 60.8 °F 21.2 °F 22% 30.70 in 10.0 mi WNW 17.3 mph 27.6 mph N/A   Scattered Clouds
1:52 PM 60.8 °F 23.0 °F 23% 30.69 in 10.0 mi WNW 25.3 mph 34.5 mph N/A   Scattered Clouds
2:12 PM 64.4 °F 26.6 °F 24% 30.69 in 10.0 mi WNW 23.0 mph 31.1 mph N/A   Scattered Clouds
2:32 PM 60.8 °F 24.8 °F 25% 30.69 in 10.0 mi WNW 21.9 mph 38.0 mph N/A   Mostly Cloudy
2:52 PM 59.0 °F 26.6 °F 29% 30.69 in 10.0 mi WNW 35.7 mph 47.2 mph N/A   Overcast
3:12 PM 59.0 °F 28.4 °F 31% 30.71 in 10.0 mi WNW 16.1 mph 26.5 mph N/A   Mostly Cloudy
3:32 PM 60.8 °F 28.4 °F 29% 30.69 in 10.0 mi WNW 25.3 mph 35.7 mph N/A   Clear
3:52 PM 59.0 °F 26.6 °F 29% 30.69 in 10.0 mi WNW 21.9 mph 31.1 mph N/A   Scattered Clouds
4:12 PM 60.8 °F 32.0 °F 34% 30.69 in 10.0 mi West 17.3 mph 24.2 mph N/A Thunderstorm Thunderstorm
4:32 PM 59.0 °F 35.6 °F 42% 30.70 in 10.0 mi SSW 8.1 mph 26.5 mph N/A Rain , Thunderstorm Light Thunderstorms and Rain
4:52 PM 53.6 °F 37.4 °F 54% 30.71 in 7.0 mi West 27.6 mph 34.5 mph 0.05 in Rain , Thunderstorm Light Thunderstorms and Rain
5:12 PM 53.6 °F 41.0 °F 62% 30.71 in 10.0 mi WSW 3.5 mph - 0.01 in Rain Light Rain
5:32 PM 55.4 °F 42.8 °F 63% 30.70 in 10.0 mi South 6.9 mph - 0.01 in Thunderstorm Scattered Clouds
5:52 PM 59.0 °F 41.0 °F 51% 30.69 in 10.0 mi West 10.4 mph - 0.01 in   Scattered Clouds
6:12 PM 59.0 °F 39.2 °F 48% 30.69 in 10.0 mi West 9.2 mph - N/A   Scattered Clouds
6:32 PM 59.0 °F 39.2 °F 48% 30.69 in 10.0 mi West 12.7 mph 19.6 mph N/A   Clear
6:52 PM 55.4 °F 37.4 °F 51% 30.69 in 10.0 mi West 15.0 mph - N/A   Mostly Cloudy
7:12 PM 59.0 °F 35.6 °F 42% 30.69 in 10.0 mi West 11.5 mph 17.3 mph N/A   Scattered Clouds
7:32 PM 59.0 °F 37.4 °F 45% 30.69 in 10.0 mi West 12.7 mph - N/A   Clear
7:52 PM 59.0 °F 37.4 °F 45% 30.69 in 10.0 mi WNW 17.3 mph 24.2 mph N/A Thunderstorm Thunderstorm
8:12 PM 55.4 °F 37.4 °F 51% 30.69 in 10.0 mi WNW 17.3 mph - N/A   Overcast
8:32 PM 53.6 °F 35.6 °F 51% 30.69 in 10.0 mi WNW 11.5 mph 25.3 mph N/A   Overcast
8:52 PM 53.6 °F 35.6 °F 51% 30.69 in 10.0 mi WNW 11.5 mph - N/A   Scattered Clouds
9:12 PM 53.6 °F 35.6 °F 51% 30.69 in 10.0 mi West 9.2 mph - N/A   Scattered Clouds
9:32 PM 53.6 °F 37.4 °F 54% 30.71 in 10.0 mi West 9.2 mph - N/A   Scattered Clouds
9:52 PM 53.6 °F 39.2 °F 58% 30.70 in 10.0 mi West 19.6 mph 25.3 mph N/A   Clear
10:12 PM 53.6 °F 37.4 °F 54% 30.71 in 10.0 mi West 15.0 mph 19.6 mph N/A Thunderstorm Clear
10:32 PM 53.6 °F 37.4 °F 54% 30.72 in 10.0 mi West 10.4 mph - N/A   Clear
10:52 PM 51.8 °F 37.4 °F 58% 30.72 in 10.0 mi West 10.4 mph - N/A   Clear
11:12 PM 51.8 °F 37.4 °F 58% 30.72 in 10.0 mi West 12.7 mph - N/A   Clear
11:32 PM 51.8 °F 35.6 °F 54% 30.72 in 10.0 mi West 10.4 mph 17.3 mph N/A   Clear
11:52 PM 51.8 °F 35.6 °F 54% 30.72 in 10.0 mi West 6.9 mph - N/A   Scattered Clouds